Погода в Дачу-Борзое

Россия / Чеченская Республика     43°00′31″N   45°43′34″E
темп.,
°C
ветер,
м/с
пор.,
м/с
влажн.,
%
обл.,
%
осадки,
мм/ч
давл.,
гПа
погр.,
м
24 января, пн
пн2400:00−2ююв11802 0.0 101124
03:00−2ю218168 0.0 101221
06:00−3ю21859 0.0 101415
09:00+1с117689 0.0 101491
12:00+3с11697 0.0 1015228
15:00+2сз237419 0.0 1018525
18:00−1ю34885 0.0 102072
21:00−3ю228479 0.0 102114
25 января, вт
вт2500:00−3ююз118317 0.0 102111
03:00−4ю118667 0.0 102215
06:00−2ю119387 0.0 102258
09:00−1сз128291 0.0 1023277
12:00+1сз237899 0.1 1023729
15:000ссз1388100 0.4 1025420
18:00−1ссз129399 0.4 1026131
21:00−2с119891 0.7 1026144
26 января, ср
ср2600:00−3ссв119680 0.1 1024133
03:00−4в119363 0.1 1022127
06:00−3с1195100 0.2 1021164
09:00−3с119090 0.4 1021307
12:00−2с218398 0.1 1019543
15:00−3ссз2292100 0.1 1019356
18:00−3сз009197 0.2 1020121
21:00−3зсз1196100 0.3 101997
27 января, чт
чт2700:00−4юз1197100 0.3 101931
03:00−4зюз1297100 0.5 101897
06:00−4зюз1296100 0.3 101881
09:00−3зсз128893 0.9 1018345
12:00−1ссз227897 0.1 1017803
15:00−1с2284100 0.3 1018464
18:00−3ссз1298100 0.8 1020143
21:00−3ссз119799 1.8 1021139
28 января, пт
пт2800:00−4сз019899 0.5 1022104
03:00−4з009898 0.8 102336
06:00−4ссз119799 0.5 1024113
09:00−3с119099 1.0 1025336
12:00−2с217997 0.2 1024662
15:00−1ссв117054 0.3 1024681
18:00−4ю228598 0.0 102537
21:00−5ююв34752 0.0 102558